Location: Ballingbuur
(53.0000°N, 5.7667°E)
Time: 07:06:23
(UTC+00:00)

Cosmos 1782 - Pass Details

Date: 29 November 2020
Orbit: 537 x 551 km, 82.5° (Epoch: 23 January)

Event Time Altitude Azimuth Distance (km) Brightness Sun altitude
Exits shadow 04:14:42 36° 128° (SE) 883 4.2 -27.6°
Drops below altitude 10° 04:17:22 10° 152° (SSE) 1,828 5.8 -27.2°
Sets 04:19:34 0° 158° (SSE) 2,717 6.7 -26.9°
